Simultaneous Nadir Overpasses (SNOs) Predictions

Prediction of SNOs between AQUA and NOAA-19 Satellite Orbit:

Table of predicted SNOs for the next 14.0 days since TLE Epoch: 7/9/2022
Index Date (AQUA) Time (AQUA) Lat,Lon (AQUA) SZA (AQUA ) Date (NOAA-19) Time (NOAA-19) Lat,Lon (NOAA-19) SZA (NOAA-19 ) Distance(km) Time Diff (sec)
1 07/09/2022 11:14:11 77.50, -4.34 55.72 07/09/2022 11:13:49 77.51, -4.48 55.75 3.65 22
2 07/09/2022 12:03:38 -77.58, 162.98 124.18 07/09/2022 12:04:46 -77.55, 162.99 124.23 3.28 68
3 07/11/2022 16:47:26 -77.48, 92.43 124.01 07/11/2022 16:46:42 -77.50, 92.34 123.97 3.14 44
4 07/11/2022 17:36:54 77.53,-100.13 56.06 07/11/2022 17:37:42 77.55,-100.16 56.06 2.30 48
5 07/13/2022 22:20:43 77.49,-170.92 56.33 07/13/2022 22:19:38 77.47,-170.94 56.33 1.96 65
6 07/13/2022 23:10:09 -77.52, -3.39 123.64 07/13/2022 23:10:36 -77.52, -3.44 123.64 1.27 27
7 07/16/2022 04:43:25 77.50, 93.39 56.69 07/16/2022 04:43:31 77.51, 93.33 56.70 1.71 6
8 07/18/2022 10:16:40 -77.50,-169.93 122.93 07/18/2022 10:16:26 -77.48,-169.95 122.94 2.19 14
9 07/18/2022 11:06:10 77.65, -2.92 57.27 07/18/2022 11:07:20 77.70, -1.59 57.20 31.95 70
10 07/20/2022 15:49:55 77.46, -73.07 57.44 07/20/2022 15:49:19 77.49, -73.06 57.47 2.81 36
11 07/20/2022 16:39:22 -77.53, 94.31 122.48 07/20/2022 16:40:19 -77.53, 94.41 122.50 2.52 57
12 07/22/2022 21:23:10 -77.48, 23.56 122.11 07/22/2022 21:22:15 -77.46, 23.67 122.11 3.20 55



Historial Predications of SNOs between AQUA and NOAA-19
